Location: Unspecified
(51.0000°N, 12.0000°E)
Time: 18:38:26
(UTC+02:00)

N. Korean satellite - Visible Passes

Search period start: 18 October 2019 00:00
Search period end: 27 October 2019 23:00
Orbit: 455 x 508 km, 97.2° (Epoch: 18 October)

Date Brightness Start Highest point End Pass type
(mag) Time Alt. Az. Time Alt. Az. Time Alt. Az.
18 Oct 10.2 06:05:51 10° ENE 06:07:43 14° E 06:09:36 10° ESE visible
19 Oct 10.3 19:28:34 10° WSW 19:30:02 12° W 19:31:29 10° WNW visible
20 Oct 8.4 06:47:25 10° NNE 06:50:49 37° E 06:54:14 10° SSE visible
20 Oct 9.4 19:01:44 10° SSW 19:04:29 22° W 19:07:17 10° NW visible
21 Oct 9.6 06:22:34 10° NE 06:25:22 21° E 06:28:10 10° SE visible
22 Oct 10.4 05:58:32 10° ENE 05:59:50 11° E 06:01:08 10° ESE visible
23 Oct 7.3 07:04:45 10° NNE 07:08:21 60° E 07:11:59 10° S visible
23 Oct 10.0 19:20:04 10° SW 19:22:06 15° W 19:24:09 10° NW visible
24 Oct 8.8 06:39:40 10° NNE 06:42:57 31° E 06:46:16 10° SSE visible
24 Oct 9.0 18:53:36 10° SSW 18:56:35 27° W 18:59:36 10° NW visible
25 Oct 9.9 06:14:56 10° NE 06:17:28 18° E 06:20:01 10° SE visible
25 Oct 7.5 18:27:46 10° S 18:31:09 52° W 18:34:35 10° NNW visible
27 Oct 7.7 05:56:54 10° NNE 06:00:29 49° E 06:04:05 10° S visible
27 Oct 9.8 18:11:42 10° SW 18:14:08 18° W 18:16:36 10° NW visible
